Torna al catalogo

STARLINK-31305

AttivoComunicazioniVLEO
NORAD 59232·PAYLOAD·🇺🇸 United States

Lanciato Mar 16, 2024 da Cape Canaveral Space Force Station

Loading…

Prossimi Passaggi (prossime 24 ore)

TLE

AggiornatoSource: CelesTrak SupGP

Epoca: Sep 14, 2026, 14:16 UTC

1 59232C 24049B   26257.59493056  .00033700  00000+0  12212-2 0  2572
2 59232  43.0005 156.4804 0001496 262.5879 290.9693 15.27545755    17

Traccia STARLINK-31305 in tempo reale con AllMySat

Download on the App Store